Regional Weather Roundup
Issued by NWS State College, PA

Home | Current Version | Previous Version | Text Only | Print | Product List | Glossary On
Versions: 1 2 3 4 5 6 7 8 9 10 11 12 13 14 15 16 17 18 19 20 21 22 23 24 25 26 27 28 29 30 31 32 33 34 35 36 37 38 39 40 41 42 43 44 45 46 47 48 49 50
000
ASUS41 KCTP 220810
RWRCTP

REGIONAL WEATHER ROUNDUP
NATIONAL WEATHER SERVICE STATE COLLEGE PA
300 AM EST SUN JAN 22 2017

Note: "fair" indicates few or no clouds below 12,000 feet with no
significant weather and/or obstructions to visibility.

* = STATION THAT DOES NOT REPORT PRECIPITATION /E.G. RAIN...SNOW...ETC/
    THUNDER OR FOG.

PAZ002>004-007>009-013>016-020>023-029>032-220900-
WESTERN PENNSYLVANIA

CITY           SKY/WX    TMP DP  RH WIND       PRES   REMARKS
ERIE           CLOUDY    48  46  93 CALM      29.66S
MEADVILLE      CLOUDY    52  46  80 S7        29.67S
FRANKLIN*        N/A     50  48  93 SW6       29.70S
NEW CASTLE     LGT RAIN  51  51 100 SE3       29.70F
BEAVER COUNTY  NOT AVBL
BUTLER*        MOCLDY    48  46  93 W6        29.72R
PITTSBURGH INT MOCLDY    51  50  96 N6        29.67F
PITTSBURGH     PTCLDY    52  46  80 N3        29.66F
INDIANA*       CLOUDY    46  46 100 CALM      29.71S
LATROBE        CLOUDY    46  46 100 MISG      29.68F
WASHINGTON CO* MOCLDY    43  41  93 CALM      29.67F VSB 1/2
$$

PAZ004>006-010>012-017>019-024>028-033>037-041-042-045-046-049>053-220900-
CENTRAL PENNSYLVANIA

CITY           SKY/WX    TMP DP  RH WIND       PRES   REMARKS
BRADFORD       FOG       44  44 100 NW5       29.69R VSB 1/2
DUBOIS         MOCLDY    45  43  93 CALM      29.68S FOG
CLEARFIELD     FOG       39  39 100 N6        29.70F VSB 1/4
JOHNSTOWN      CLOUDY    50  46  86 SE3       29.69R
ALTOONA        FOG       43  42  97 CALM      29.72S VSB 1/4
STATE COLLEGE  FOG       41  41 100 CALM      29.72F VSB 1/4
WILLIAMSPORT   FOG       41  40  96 CALM      29.73F VSB 1/4
SELINSGROVE    FOG       42  42 100 CALM      29.75S VSB 1/2
FT INDIANTOWN  FOG       41  41 100 CALM      29.73S VSB 1
CAPITAL CITY   FOG       44  43  96 S3        29.75R VSB 1/4
HARRISBURG     FOG       42  42 100 CALM      29.74R VSB 1/8
YORK           FOG       45  45 100 CALM      29.73S VSB 1/4
$$

PAZ038>040-043-044-047-048-054-055-060>062-067>071-220900-
EASTERN PENNSYLVANIA

CITY           SKY/WX    TMP DP  RH WIND       PRES   REMARKS
SCRANTON       FOG       42  42 100 W3        29.73R VSB 1/4
MOUNT POCONO   CLOUDY    40  39  97 CALM      29.71S FOG
ALLENTOWN      FOG       43  41  93 NE3       29.73F VSB 1/2
QUAKERTOWN*    CLOUDY    43  43 100 S3        29.74S VSB 1/2
READING        FOG       43  43 100 CALM      29.73S VSB 1/2
LANCASTER      FOG       43  43 100 CALM      29.74R VSB 3/4
COATESVILLE    FOG       43  43 100 CALM      29.74F VSB<1/4
POTTSTOWN      FOG       43  43 100 CALM      29.75S VSB 1/4
BLUE BELL      CLOUDY    43  43 100 CALM      29.73F VSB 1/4
DOYLESTOWN     CLOUDY    45  44  97 CALM      29.73F FOG
WILLOW GROVE   NOT AVBL
NORTH PHILA    FOG       46  45  96 SE6       29.75F VSB 1/4
PHILADELPHIA   FOG       45  44  97 E5        29.74F VSB 1/4
$$




USA.gov is the U.S. government's official web portal to all federal, state and local government web resources and services.